Regional Weather Roundup
Issued by NWS

Home | Current Version | Previous Version | Text Only | Print | Product List | Glossary Off
Versions: 1 2 3 4 5 6 7 8 9 10 11 12 13 14 15 16 17 18 19 20 21 22 23 24 25 26 27 28 29 30 31 32 33 34 35 36 37 38 39 40 41 42 43 44 45 46 47 48 49 50

000
ASUS43 KMKX 010200
RWRWI

WISCONSIN REGIONAL WEATHER ROUNDUP
NATIONAL WEATHER SERVICE MILWAUKEE/SULLIVAN WI
900 PM CDT FRI JUL 31 2015

NOTE: "FAIR" INDICATES FEW OR NO CLOUDS BELOW 12,000 FEET WITH NO
SIGNIFICANT WEATHER AND/OR OBSTRUCTIONS TO VISIBILITY.

WIZ001-002-006>008-014>016-023>028-010300-
NORTHWEST WISCONSIN

CITY           SKY/WX    TMP DP  RH WIND       PRES   REMARKS
SUPERIOR ARPT  CLEAR     70  52  53 W7        29.91S
ASHLAND        PTCLDY    60  58  92 CALM      29.91S
HAYWARD        CLEAR     71  50  47 CALM      29.94S
SIREN          CLEAR     68  54  61 CALM      29.95S
CUMBERLAND     CLEAR     64  52  63 W6        29.96S
RICE LAKE      CLEAR     67  52  58 W3        29.97S
CHETEK         CLEAR     70  53  54 CALM      29.95S
LADYSMITH      CLEAR     70  54  57 W3        29.96S
EAU CLAIRE     CLEAR     68  53  58 W3        29.96R
MENOMONIE      CLEAR     71  52  51 SW5       29.97S
NEW RICHMOND   PTCLDY    68  53  57 W5        29.98S
OSCEOLA        PTCLDY    71  51  50 W6        29.99S
$$

WIZ003>005-009-010-017-018-010300-
NORTH CENTRAL WISCONSIN

CITY           SKY/WX    TMP DP  RH WIND       PRES   REMARKS
MANITOWISH WTR CLEAR     58  58 100 CALM      29.93S
ARBOR VITAE    CLEAR     62  58  88 CALM      29.93S
WOODRUFF       CLEAR     62  58  88 CALM      29.93S
RHINELANDER    CLEAR     57  55  93 W5        29.95S
EAGLE RIVER    CLEAR     59  51  74 CALM      29.93R
LAND O LAKES   CLEAR     60  52  75 SW3       29.93S
PHILLIPS       MOCLDY    63  59  87 CALM      29.93F
TOMAHAWK       PTCLDY    58  56  92 CALM      29.94F
MEDFORD        CLEAR     66  53  62 W5        29.95S
MERRILL        NOT AVBL
$$

WIZ029-030-035-036-043>047-010300-
CENTRAL WISCONSIN

CITY           SKY/WX    TMP DP  RH WIND       PRES   REMARKS
WAUSAU         PTCLDY    66  55  67 CALM      29.94S
MOSINEE        NOT AVBL
MARSHFIELD     CLEAR     67  51  56 W5        29.96R
STEVENS POINT  MOCLDY    68  52  56 NE5       29.96R
WAUPACA        CLOUDY    73  52  47 N8        29.95R
WAUTOMA        NOT AVBL
WISC RAPIDS    CLEAR     69  50  50 W6        29.96S
CAMP DOUGLAS   NOT AVBL
$$

WIZ011>013-019>022-031-037>040-048>050-010300-
NORTHEAST WISCONSIN

CITY           SKY/WX    TMP DP  RH WIND       PRES   REMARKS
ANTIGO         PTCLDY    59  55  88 W6        29.95S
SHAWANO        PTCLDY    68  55  62 W3        29.92F
OCONTO         PTCLDY    72  53  51 W7        29.89R
STURGEON BAY   PTCLDY    70  55  60 NW7       29.91R
GREEN BAY      CLOUDY    70  53  54 NW8       29.92R
MANITOWOC      NOT AVBL
APPLETON       MOCLDY    70  52  52 VRB5      29.94R
CLINTONVILLE   CLOUDY    70  52  52 NW10G18   29.93R
OSHKOSH        PTCLDY    72  52  49 W7        29.93R
$$

WIZ032>034-041-042-053>061-010300-
SOUTHWEST WISCONSIN

CITY           SKY/WX    TMP DP  RH WIND       PRES   REMARKS
LA CROSSE      CLEAR     72  55  55 W5        29.97S
SPARTA         CLEAR     66  51  58 CALM      29.98S
VIROQUA        CLEAR     68  53  58 CALM      30.01R
BOSCOBEL       CLEAR     68  58  70 CALM      29.99R
PRAIRIE DU CHI CLEAR     74  52  45 W6        29.99S
PLATTEVILLE    CLEAR     71  54  55 W5        30.00S
$$

WIZ056-057-062-063-064-067-068-010300-
SOUTH CENTRAL WISCONSIN

CITY           SKY/WX    TMP DP  RH WIND       PRES   REMARKS
REEDSBURG      CLEAR     71  51  48 W6        29.97S
BARABOO/DELLS  CLEAR     71  47  42 W5        29.97S
LONE ROCK      NOT AVBL
MINERAL POINT  CLEAR     70  52  52 W3        30.01R
MADISON        CLEAR     72  50  45 CALM      29.97R
MIDDLETON      CLEAR     67  50  54 W5        29.98S
WATERTOWN      CLEAR     71  53  53 W3        29.95R
MONROE         CLEAR     72  52  49 W8        29.99R
JANESVILLE     NOT AVBL
$$

WIZ051-052-058>065-066-070>072-010300-
SOUTHEAST WISCONSIN

CITY           SKY/WX    TMP DP  RH WIND       PRES   REMARKS
MILWAUKEE      PTCLDY    77  49  37 W9        29.94R
WAUKESHA       CLEAR     70  50  49 W10       29.96R
MILWAUKEE/TIMM CLEAR     75  45  33 W8        29.95R
RACINE         CLEAR     73  50  44 W6        29.96R
BURLINGTON     CLEAR     68  49  51 W3        29.96R
KENOSHA        CLEAR     67  52  58 W6        29.95R
FOND DU LAC    CLEAR     70  53  54 W6        29.94R
SHEBOYGAN      CLEAR     71  53  52 W6        29.92R
WEST BEND      CLEAR     72  48  43 W5        29.94R
JUNEAU         CLEAR     70  53  53 CALM      29.96R
$$

LSZ147-162-010300-
LAKE SUPERIOR

STATION/POSITION TIME  TEMP    WIND        PRES    WAVE
                       AIR SEA DIR/SP/G            HT/PER
                 (UTC) (F)     (DEG/KT/KT) (MB)    (FT/S)
W MID LAKE BUOY  0050   59 53  250/ 12/ 14 1010.8F   2/ 3
DEVILS ISLAND    0100   62     230/  6/  7 1012.0F
PORT WING        0100   71     210/  5/  7 1012.5S
SAXON HARBOR     0100   67                 1011.9
$$

LMZ867-665-643>646-010300-
LAKE MICHIGAN

STATION/POSITION TIME  TEMP    WIND        PRES    WAVE
                       AIR SEA DIR/SP/G            HT/PER
                 (UTC) (F)     (DEG/KT/KT) (MB)    (FT/S)
CHAMBERS ISLAND  0100   71     270/  3/  5 1011.5R
S GREEN BAY BUOY 0000   72 72  310/ 10/ 14 1012.7R
N MID LAKE BUOY  0050   70 69  290/  8/ 10 1010.3R   1/ 3
NORTHPORT PIER   0100   73     300/  9/ 11 1010.8S
SISTER BAY       0044   74     330/ 13/ 15   N/A
ALGOMA LAKESHORE 0112             CALM       N/A
KEWAUNEE LAKESHO 0100   74     300/  3/  5 1011.4R
SHEBOYGAN LAKESH 0100   77     290/ 10/ 12 1012.4R
PORT WASHINGTON  0100   78     290/  4/ 10 1013.2
ATWATER BUOY     0100   75 68  300/ 10/ 12 1014.4R
MILWAUKEE LAKESH 0100   79     300/  8/ 12   N/A
KENOSHA   LAKESH 0100   78     290/  8/ 12 1012.9R
$$

TC  - TEMPERATURE IN CELSIUS
VSB - VISIBILITY IN STATUTE MILES
WCI - WIND CHILL INDEX
HX  - HEAT INDEX




USA.gov is the U.S. government's official web portal to all federal, state and local government web resources and services.